[[{"header":{"parameterUnit":"m.s-1","parameterCategory":2,"la1":30.2992,"la2":30.254,"lo1":-89.0895,"lo2":-89.0443,"dy":0.0025,"dx":0.0025,"nx":19,"ny":19,"refTime":"2026-04-15T21:00:00:Z","depth":"0","parameterNumber":2,"parameterNumberName":"U-component_of_CURRENTS"},"data":[0,0,0,0.2629,0.2631,0.2699,0.2699,0.2738,0.2738,0,0,0,0,0,0,0,0,0,0,0,0.2603,0.2603,0.2629,0.2631,0.2699,0.2699,0.2738,0.2738,0,0,0,0,0,0,0,0,0,0,0,0.2602,0.2603,0.2604,0.2631,0.2699,0.2699,0.2738,0.2696,0,0,0,0,0,0,0,0,0,0,0.2635,0.262,0.2603,0.2604,0.2632,0.2699,0.2699,0.2694,0.2699,0.2697,0,0.2717,0,0.2734,0.2741,0.2741,0,0,0,0.262,0.2617,0.2639,0.2604,0.2633,0.2698,0.2665,0.2697,0.2702,0.2702,0.2718,0.272,0.2735,0.2741,0.2741,0.293,0.2932,0,0,0.2617,0.2608,0.2636,0.2643,0.2662,0.2663,0.2667,0.27,0.2706,0.2718,0.2721,0.2735,0.2741,0.2742,0.2929,0.2931,0,0,0,0.2613,0.2605,0.2628,0.264,0.266,0.2665,0.267,0.2704,0.2714,0.2721,0.2736,0.2741,0.2742,0.2927,0.293,0.3097,0,0,0,0.261,0.2604,0.2626,0.2621,0.266,0.269,0.2674,0.2711,0.2716,0.2736,0.2741,0.2742,0.2925,0.2928,0.3088,0.313,0,0,0,0.2598,0.2603,0.2615,0.262,0.2655,0.269,0.2701,0.2713,0.2725,0.2741,0.2742,0.2923,0.2928,0.308,0.3118,0.3146,0,0,0,0.2579,0.262,0.2615,0.2675,0.2655,0.2759,0.2701,0.2758,0.278,0.2742,0.2925,0.2929,0.3078,0.3111,0.314,0.3067,0.3091,0,0,0.2622,0.2624,0.2664,0.2662,0.2773,0.2748,0.2883,0.287,0.2848,0.2903,0.2908,0.3091,0.3117,0.3145,0.3313,0.3329,0,0,0,0.2673,0.2698,0.2735,0.2794,0.2859,0.2947,0.2947,0.2995,0.3082,0.2884,0.3131,0.3142,0.3153,0.3098,0.3113,0.316,0.2949,0.2949,0.2948,0.2669,0.273,0.2806,0.2893,0.2974,0.3087,0.3181,0.3247,0.32,0.3296,0.331,0.3486,0.3436,0.3444,0.3499,0.3361,0.3362,0.3363,0.3363,0.2712,0.2732,0.2847,0.2932,0.3054,0.3163,0.3379,0.342,0.3588,0.3532,0.3534,0.3318,0.3469,0.3521,0.3375,0.3373,0.3371,0.337,0.3369,0.2659,0.2676,0.2742,0.2863,0.3008,0.3171,0.3345,0.3527,0.368,0.3772,0.3618,0.3613,0.362,0.3745,0.3745,0.3746,0.3746,0.3746,0.3746,0.2534,0.2617,0.2644,0.2779,0.2843,0.2998,0.3313,0.3469,0.368,0.3778,0.3776,0.3709,0.36,0.3541,0.3753,0.3752,0.3751,0.375,0.375,0.2428,0.2448,0.2496,0.2542,0.2703,0.2779,0.3073,0.3372,0.3575,0.3667,0.3838,0.3765,0.3678,0.3664,0.3606,0.3821,0.3821,0.3821,0.3821,0.2307,0.2338,0.2364,0.242,0.2524,0.2685,0.2828,0.3172,0.3616,0.3813,0.3902,0.3841,0.3836,0.3755,0.3739,0.3681,0.3911,0.3911,0.3912,0.2216,0.2251,0.2227,0.2319,0.2438,0.2563,0.2638,0.2921,0.3591,0.3925,0.4001,0.3997,0.3915,0.3902,0.377,0.3744,0.3644,0,0]},{"header":{"parameterUnit":"m.s-1","parameterCategory":2,"la1":30.2992,"la2":30.254,"lo1":-89.0895,"lo2":-89.0443,"dy":0.0025,"dx":0.0025,"nx":19,"ny":19,"refTime":"2026-04-15T21:00:00:Z","depth":"0","parameterNumber":3,"parameterNumberName":"V-component_of_CURRENTS"},"data":[0,0,0,0.094,0.0938,0.0795,0.0794,0.055,0.0548,0,0,0,0,0,0,0,0,0,0,0,0.0994,0.0993,0.094,0.0938,0.0795,0.0794,0.0551,0.0548,0,0,0,0,0,0,0,0,0,0,0,0.0994,0.0994,0.0993,0.0937,0.0795,0.0794,0.0551,0.0667,0,0,0,0,0,0,0,0,0,0,0.0811,0.0886,0.0994,0.0993,0.0937,0.0796,0.0794,0.0673,0.066,0.0606,0,0.0606,0,0.058,0.0533,0.0532,0,0,0,0.091,0.0898,0.0856,0.0993,0.0936,0.0796,0.0852,0.0666,0.0651,0.0588,0.0603,0.0594,0.0576,0.0532,0.053,0.052,0.0521,0,0,0.0918,0.096,0.0867,0.0848,0.0926,0.0856,0.0848,0.0657,0.0654,0.0602,0.0588,0.0572,0.053,0.0528,0.0518,0.052,0,0,0,0.0959,0.0966,0.0929,0.0858,0.0842,0.0853,0.0843,0.0662,0.065,0.0585,0.0569,0.0529,0.0526,0.0516,0.0519,0.077,0,0,0,0.0962,0.0991,0.0934,0.0956,0.0847,0.076,0.0852,0.0663,0.0641,0.057,0.0529,0.0524,0.0515,0.0518,0.076,0.0903,0,0,0,0.0995,0.0994,0.0986,0.0959,0.0909,0.0763,0.0739,0.0658,0.0631,0.0532,0.0523,0.0514,0.0517,0.075,0.0886,0.0967,0,0,0,0.1029,0.1059,0.0988,0.101,0.0911,0.0888,0.074,0.0691,0.0623,0.0528,0.0515,0.0519,0.0747,0.0875,0.0957,0.0946,0.0991,0,0,0.1091,0.1067,0.108,0.1013,0.1055,0.0904,0.0945,0.0784,0.0663,0.0563,0.0562,0.0763,0.0884,0.0964,0.1163,0.1202,0,0,0,0.1115,0.1143,0.1135,0.114,0.1084,0.1093,0.093,0.0887,0.0832,0.0644,0.0769,0.0839,0.088,0.0852,0.0885,0.0566,0.0536,0.0536,0.0535,0.1273,0.1247,0.1311,0.1291,0.1288,0.1215,0.122,0.1139,0.0966,0.1012,0.1047,0.1292,0.1268,0.1291,0.0964,0.1031,0.1032,0.1033,0.1033,0.1424,0.1461,0.1478,0.1533,0.1533,0.1558,0.1511,0.1434,0.145,0.1293,0.1318,0.1126,0.1341,0.0979,0.105,0.1047,0.1045,0.1043,0.1042,0.1543,0.1556,0.1591,0.1676,0.1788,0.1763,0.1883,0.1819,0.1709,0.1769,0.1629,0.1623,0.1295,0.1744,0.1745,0.1746,0.1747,0.1747,0.1748,0.1616,0.1653,0.1718,0.1812,0.1886,0.2015,0.2084,0.2116,0.2059,0.1932,0.1928,0.1354,0.1507,0.1468,0.1764,0.1761,0.1759,0.1758,0.1757,0.1699,0.1693,0.178,0.1853,0.2053,0.2224,0.2285,0.2353,0.2344,0.2317,0.1685,0.1973,0.188,0.1849,0.1817,0.2187,0.2187,0.2187,0.2187,0.1737,0.1746,0.185,0.1981,0.2182,0.234,0.2504,0.2513,0.2145,0.186,0.1683,0.1474,0.147,0.1337,0.1318,0.1267,0.1489,0.1487,0.1486,0.178,0.1794,0.1896,0.2029,0.2268,0.2474,0.2606,0.2597,0.1945,0.1421,0.1253,0.1283,0.0929,0.0949,0.069,0.069,0.0587,0,0]}],[{"header":{"parameterUnit":"m.s-1","parameterCategory":2,"la1":30.2992,"la2":30.254,"lo1":-89.0895,"lo2":-89.0443,"dy":0.0025,"dx":0.0025,"nx":19,"ny":19,"refTime":"2026-04-15T21:00:00:Z","depth":"2","parameterNumber":2,"parameterNumberName":"U-component_of_CURRENTS"},"data":[0,0,0,0.2091,0.2092,0.2126,0.2126,0.2178,0.2179,0,0,0,0,0,0,0,0,0,0,0,0.2076,0.2076,0.2091,0.2092,0.2126,0.2126,0.2178,0.2179,0,0,0,0,0,0,0,0,0,0,0,0.2076,0.2076,0.2076,0.2092,0.2126,0.2126,0.2178,0.2148,0,0,0,0,0,0,0,0,0,0,0.2114,0.2101,0.2076,0.2076,0.2093,0.2126,0.2126,0.2147,0.215,0.2167,0,0.2176,0,0.2184,0.2183,0.2183,0,0,0,0.2085,0.2098,0.211,0.2076,0.2093,0.2126,0.2109,0.2149,0.2153,0.2172,0.2177,0.2179,0.2185,0.2183,0.2184,0.2305,0.2306,0,0,0.2083,0.208,0.2107,0.2112,0.2107,0.2108,0.211,0.2151,0.2156,0.2177,0.218,0.2186,0.2184,0.2184,0.2304,0.2305,0,0,0,0.2083,0.2078,0.2088,0.211,0.2119,0.2109,0.2111,0.2154,0.2158,0.2181,0.2186,0.2184,0.2185,0.2303,0.2305,0.2499,0,0,0,0.2081,0.2078,0.2088,0.2085,0.2118,0.2136,0.2113,0.2155,0.216,0.2186,0.2184,0.2186,0.2302,0.2304,0.2492,0.2424,0,0,0,0.2073,0.2078,0.2083,0.2085,0.2104,0.2135,0.2142,0.2156,0.2164,0.2183,0.2186,0.2302,0.2304,0.2485,0.2418,0.2499,0,0,0,0.2065,0.2075,0.2083,0.2104,0.2103,0.2168,0.2141,0.2172,0.219,0.2185,0.2303,0.2305,0.2483,0.2414,0.2494,0.2402,0.2416,0,0,0.2071,0.2075,0.2089,0.2098,0.215,0.2162,0.2261,0.2257,0.223,0.2286,0.2289,0.2494,0.2417,0.2498,0.2518,0.2529,0,0,0,0.2088,0.2095,0.2115,0.2145,0.2196,0.2266,0.2298,0.2353,0.243,0.2252,0.248,0.2421,0.2469,0.2404,0.2413,0.2314,0.2314,0.2314,0.2313,0.2072,0.2103,0.2139,0.2196,0.2249,0.235,0.2432,0.2505,0.2518,0.2595,0.2579,0.2741,0.268,0.2684,0.2652,0.2653,0.2654,0.2655,0.2655,0.2075,0.2082,0.2153,0.2197,0.2294,0.2388,0.2566,0.263,0.2785,0.2748,0.2793,0.2604,0.2704,0.267,0.2667,0.2665,0.2664,0.2663,0.2662,0.204,0.2046,0.2093,0.2168,0.2287,0.2418,0.256,0.2709,0.2829,0.2908,0.2819,0.2814,0.2802,0.2973,0.2973,0.2973,0.2973,0.2974,0.2974,0.1966,0.2013,0.2046,0.2156,0.2217,0.2355,0.2581,0.2696,0.2834,0.2893,0.2894,0.2844,0.2834,0.2815,0.2976,0.2976,0.2975,0.2975,0.2975,0.1878,0.191,0.1951,0.2004,0.217,0.2237,0.2463,0.2648,0.2813,0.2849,0.2916,0.2916,0.2809,0.2798,0.2775,0.2916,0.2916,0.2916,0.2916,0.18,0.1826,0.1865,0.1929,0.204,0.2176,0.222,0.238,0.2612,0.2661,0.2672,0.2615,0.2624,0.2499,0.2496,0.2463,0.2523,0.2522,0.2521,0.173,0.1761,0.1763,0.1854,0.1973,0.2045,0.2004,0.2048,0.2291,0.2501,0.2553,0.2899,0.2843,0.2846,0.267,0.266,0.2613,0,0]},{"header":{"parameterUnit":"m.s-1","parameterCategory":2,"la1":30.2992,"la2":30.254,"lo1":-89.0895,"lo2":-89.0443,"dy":0.0025,"dx":0.0025,"nx":19,"ny":19,"refTime":"2026-04-15T21:00:00:Z","depth":"2","parameterNumber":3,"parameterNumberName":"V-component_of_CURRENTS"},"data":[0,0,0,-0.0864,-0.0864,-0.0841,-0.0841,-0.0757,-0.0757,0,0,0,0,0,0,0,0,0,0,0,-0.0865,-0.0864,-0.0864,-0.0864,-0.0841,-0.0841,-0.0758,-0.0757,0,0,0,0,0,0,0,0,0,0,0,-0.0865,-0.0864,-0.0864,-0.0864,-0.0841,-0.0841,-0.0758,-0.0787,0,0,0,0,0,0,0,0,0,0,-0.0815,-0.0822,-0.0864,-0.0864,-0.0864,-0.0841,-0.0841,-0.0789,-0.0785,-0.0755,0,-0.0751,0,-0.0757,-0.0751,-0.075,0,0,0,-0.0857,-0.0825,-0.0825,-0.0864,-0.0864,-0.0841,-0.0849,-0.0787,-0.0783,-0.075,-0.075,-0.0747,-0.0755,-0.075,-0.0749,-0.0732,-0.0732,0,0,-0.0858,-0.0852,-0.0828,-0.0823,-0.0856,-0.085,-0.0849,-0.0785,-0.0774,-0.075,-0.0746,-0.0754,-0.0749,-0.0749,-0.0732,-0.0732,0,0,0,-0.0867,-0.0853,-0.0855,-0.0825,-0.0828,-0.085,-0.0848,-0.0777,-0.078,-0.0745,-0.0753,-0.0749,-0.0748,-0.0731,-0.0732,-0.0516,0,0,0,-0.0867,-0.0859,-0.0856,-0.0851,-0.083,-0.0809,-0.0841,-0.0784,-0.0777,-0.0753,-0.0749,-0.0747,-0.073,-0.0731,-0.0521,-0.0484,0,0,0,-0.0866,-0.0859,-0.0857,-0.0851,-0.0846,-0.0811,-0.0809,-0.0783,-0.0782,-0.075,-0.0747,-0.073,-0.0731,-0.0525,-0.0491,-0.0511,0,0,0,-0.086,-0.0839,-0.0857,-0.0838,-0.0847,-0.0801,-0.081,-0.0774,-0.0744,-0.0748,-0.073,-0.0732,-0.0526,-0.0495,-0.0514,-0.0421,-0.04,0,0,-0.083,-0.0835,-0.0826,-0.0842,-0.0778,-0.0804,-0.0722,-0.0697,-0.0759,-0.0744,-0.0744,-0.0519,-0.0492,-0.0512,-0.0489,-0.0465,0,0,0,-0.0814,-0.0798,-0.0782,-0.0758,-0.0738,-0.0671,-0.0655,-0.0656,-0.0634,-0.0751,-0.0605,-0.0598,-0.0615,-0.0568,-0.055,-0.0737,-0.0737,-0.0737,-0.0737,-0.0738,-0.0742,-0.0697,-0.0666,-0.0631,-0.058,-0.0525,-0.0541,-0.0561,-0.0548,-0.048,-0.044,-0.0385,-0.0372,-0.0523,-0.0522,-0.0522,-0.0521,-0.0521,-0.0668,-0.0643,-0.0634,-0.0583,-0.0524,-0.0456,-0.0402,-0.0384,-0.0328,-0.0383,-0.0409,-0.0417,-0.0338,-0.0505,-0.0508,-0.051,-0.0512,-0.0513,-0.0514,-0.0604,-0.0593,-0.0566,-0.0483,-0.0393,-0.0341,-0.0258,-0.023,-0.0238,-0.0173,-0.0248,-0.025,-0.032,-0.0211,-0.021,-0.021,-0.021,-0.021,-0.021,-0.0544,-0.0525,-0.0436,-0.0353,-0.0264,-0.0184,-0.0135,-0.0125,-0.0126,-0.0086,-0.0086,-0.0339,-0.0349,-0.0311,-0.0208,-0.0209,-0.0209,-0.0209,-0.0209,-0.0462,-0.0452,-0.0312,-0.0214,-0.0032,0.0114,0.01,0.0116,0.0082,0.0092,-0.0055,-0.006,-0.0153,-0.017,-0.0133,0.0009,0.0009,0.0009,0.0009,-0.0402,-0.0397,-0.0202,-0.0047,0.0117,0.0236,0.0468,0.0471,0.0304,0.0196,0.0187,0.0202,0.0189,0.0111,0.0088,0.0127,0.0337,0.0338,0.0338,-0.0336,-0.0296,-0.0142,-0.0022,0.0172,0.0362,0.0671,0.0824,0.055,0.0349,0.0223,0.0035,0.0034,0.0023,-0.0125,-0.015,-0.01,0,0]}],[{"header":{"parameterUnit":"m.s-1","parameterCategory":2,"la1":30.2992,"la2":30.254,"lo1":-89.0895,"lo2":-89.0443,"dy":0.0025,"dx":0.0025,"nx":19,"ny":19,"refTime":"2026-04-15T21:00:00:Z","depth":"4","parameterNumber":2,"parameterNumberName":"U-component_of_CURRENTS"},"data":[0,0,0,0.1128,0.1131,0.125,0.125,0.1331,0.1331,0,0,0,0,0,0,0,0,0,0,0,0.1098,0.11,0.1128,0.1131,0.1249,0.125,0.1331,0.1331,0,0,0,0,0,0,0,0,0,0,0,0.1098,0.1099,0.1101,0.1131,0.1249,0.125,0.133,0.1259,0,0,0,0,0,0,0,0,0,0,0.1153,0.1138,0.1099,0.1101,0.1132,0.1249,0.125,0.1257,0.1264,0.1255,0,0.1286,0,0.1303,0.1335,0.1335,0,0,0,0.1135,0.1132,0.1159,0.1101,0.1133,0.1249,0.1197,0.1261,0.1269,0.1264,0.1287,0.1291,0.1304,0.1335,0.1335,0.1459,0.146,0,0,0.1128,0.1121,0.1154,0.1164,0.1179,0.1193,0.1201,0.1267,0.1282,0.1288,0.1293,0.1306,0.1335,0.1336,0.1458,0.1459,0,0,0,0.1107,0.1117,0.1144,0.1161,0.1184,0.1197,0.1205,0.128,0.1288,0.1294,0.1307,0.1336,0.1336,0.1457,0.1458,0.1478,0,0,0,0.1103,0.1104,0.1141,0.1138,0.1184,0.1243,0.1216,0.1284,0.1292,0.1306,0.1336,0.1337,0.1456,0.1457,0.1475,0.1513,0,0,0,0.109,0.1102,0.112,0.1138,0.1186,0.1243,0.1256,0.1287,0.1299,0.1335,0.1337,0.1455,0.1457,0.1472,0.1508,0.1574,0,0,0,0.1073,0.1096,0.112,0.1156,0.1185,0.1249,0.1256,0.1321,0.1358,0.1336,0.1456,0.1458,0.1471,0.1505,0.1571,0.1355,0,0,0,0.1081,0.1097,0.1116,0.114,0.1198,0.1232,0.1295,0.1353,0.1389,0.1426,0.143,0.1476,0.1508,0.1574,0.1493,0,0,0,0,0.1105,0.1123,0.1146,0.1192,0.124,0.1289,0.1348,0.1393,0.1483,0.1421,0.1517,0.1539,0.1579,0.1444,0.1469,0.1469,0.1469,0.1468,0.1468,0.1092,0.1127,0.1167,0.1218,0.1272,0.1342,0.1404,0.148,0.15,0.1571,0.1583,0.1692,0.1552,0.1602,0.1602,0.1602,0.1602,0.1602,0.1603,0.1094,0.1106,0.1183,0.1237,0.13,0.137,0.1482,0.1527,0.167,0.1658,0.1694,0.151,0.1605,0.1605,0.1604,0.1604,0.1604,0.1604,0.1604,0.1061,0.1069,0.1128,0.1214,0.1307,0.1403,0.1513,0.1607,0.1721,0.1771,0.1665,0.1738,0.1704,0.1804,0.1805,0.1805,0.1806,0.1806,0.1806,0.0987,0.1043,0.1082,0.1189,0.1256,0.1379,0.1546,0.1629,0.1736,0.1708,0.1812,0.1761,0.1755,0.1719,0.1813,0.1812,0.1811,0.1811,0.181,0.0918,0.0953,0.0999,0.1055,0.1183,0.1262,0.1447,0.1569,0.1642,0.1671,0.1667,0.1672,0.1658,0.1655,0.1614,0.1682,0.1679,0.1677,0,0.0854,0.0878,0.0922,0.0973,0.1032,0.1176,0.1235,0.1357,0.1499,0.1464,0.164,0.163,0.1633,0.1609,0.1603,0.155,0,0,0,0.0803,0.0831,0.0835,0.0901,0.0958,0.1081,0.1244,0.1263,0.148,0.1493,0.1617,0.1632,0.1672,0.1835,0.1827,0.1819,0.1763,0,0]},{"header":{"parameterUnit":"m.s-1","parameterCategory":2,"la1":30.2992,"la2":30.254,"lo1":-89.0895,"lo2":-89.0443,"dy":0.0025,"dx":0.0025,"nx":19,"ny":19,"refTime":"2026-04-15T21:00:00:Z","depth":"4","parameterNumber":3,"parameterNumberName":"V-component_of_CURRENTS"},"data":[0,0,0,-0.0269,-0.027,-0.0316,-0.0316,-0.0339,-0.0339,0,0,0,0,0,0,0,0,0,0,0,-0.0261,-0.0261,-0.0269,-0.027,-0.0315,-0.0316,-0.0339,-0.0339,0,0,0,0,0,0,0,0,0,0,0,-0.026,-0.0261,-0.0261,-0.027,-0.0315,-0.0316,-0.0339,-0.0315,0,0,0,0,0,0,0,0,0,0,-0.0276,-0.0266,-0.0261,-0.0261,-0.027,-0.0315,-0.0316,-0.0315,-0.0317,-0.0305,0,-0.0314,0,-0.0319,-0.0339,-0.0339,0,0,0,-0.0278,-0.0265,-0.0278,-0.0261,-0.027,-0.0315,-0.0297,-0.0316,-0.0319,-0.0308,-0.0315,-0.0316,-0.0319,-0.0339,-0.0339,-0.0385,-0.0385,0,0,-0.0276,-0.0267,-0.0276,-0.0279,-0.0284,-0.0296,-0.0299,-0.0318,-0.0319,-0.0315,-0.0316,-0.032,-0.0339,-0.0339,-0.0384,-0.0385,0,0,0,-0.0263,-0.0265,-0.0279,-0.0278,-0.0285,-0.0297,-0.03,-0.0319,-0.0324,-0.0317,-0.032,-0.0339,-0.0339,-0.0384,-0.0384,-0.0343,0,0,0,-0.0262,-0.0257,-0.0278,-0.0273,-0.0285,-0.0306,-0.03,-0.0323,-0.0325,-0.032,-0.0339,-0.0339,-0.0383,-0.0384,-0.0343,-0.0306,0,0,0,-0.0258,-0.0256,-0.0263,-0.0272,-0.0288,-0.0306,-0.0313,-0.0324,-0.0326,-0.0339,-0.0339,-0.0383,-0.0384,-0.0343,-0.0307,-0.0286,0,0,0,-0.0246,-0.0245,-0.0262,-0.026,-0.0287,-0.0296,-0.0313,-0.0324,-0.0334,-0.0339,-0.0383,-0.0384,-0.0343,-0.0308,-0.0287,-0.0167,0,0,0,-0.0234,-0.0243,-0.0241,-0.0257,-0.0257,-0.029,-0.029,-0.0314,-0.0352,-0.0374,-0.0375,-0.0343,-0.0308,-0.0286,-0.0241,0,0,0,0,-0.0229,-0.0229,-0.0232,-0.0238,-0.0252,-0.0254,-0.029,-0.0317,-0.0366,-0.0363,-0.038,-0.0359,-0.0346,-0.0282,-0.039,-0.039,-0.039,-0.039,-0.039,-0.0208,-0.0212,-0.0198,-0.0206,-0.0212,-0.0236,-0.0257,-0.0307,-0.0344,-0.0381,-0.0353,-0.0345,-0.028,-0.0396,-0.0396,-0.0395,-0.0395,-0.0395,-0.0395,-0.0173,-0.0157,-0.0159,-0.0148,-0.0156,-0.0161,-0.0216,-0.026,-0.0317,-0.0359,-0.0348,-0.0278,-0.0392,-0.0393,-0.0393,-0.0393,-0.0394,-0.0394,-0.0394,-0.0152,-0.0139,-0.0132,-0.0103,-0.0083,-0.0105,-0.0075,-0.0149,-0.0267,-0.0275,-0.0209,-0.0316,-0.0286,-0.027,-0.027,-0.0269,-0.0269,-0.0269,-0.0269,-0.0128,-0.0114,-0.0078,-0.0052,-0.0024,0.0015,0.0009,-0.0009,-0.0105,-0.0143,-0.0255,-0.0302,-0.0306,-0.028,-0.0265,-0.0266,-0.0266,-0.0267,-0.0267,-0.0088,-0.009,-0.0024,0.0012,0.0103,0.0141,0.0143,0.0142,0.0123,0.0068,-0.0081,-0.0091,-0.0088,-0.0097,-0.0063,0.0017,0.0018,0.002,0,-0.0062,-0.0059,0.0045,0.0131,0.0225,0.0234,0.0292,0.028,0.015,0.0132,0.0066,-0.0104,-0.0111,-0.011,-0.0115,-0.0076,0,0,0,-0.0021,0.0004,0.0093,0.0176,0.0284,0.0323,0.032,0.0319,0.0154,0.0208,0.0061,0.0051,-0.0057,-0.0254,-0.0274,-0.0279,-0.0238,0,0]}]]